This is the latest recevied weather packets stored in our database for station/object KF8LO-1. If no packets are shown the sender has not sent any weather packets the latest 10 day(s).
| Time | Temp. | Humidity | Pressure | Rain* | Wind** | Luminosity | Snow |
|---|---|---|---|---|---|---|---|
| 1777651093 | 10.56° C | 52% | 0 hPa | 0 mm | - | - | - |
| 1777650793 | 11.11° C | 54% | 0 hPa | 0 mm | - | - | - |
| 1777650493 | 10.56° C | 49% | 0 hPa | 0 mm | - | - | - |
| 1777650193 | 10.56° C | 54% | 0 hPa | 0 mm | - | - | - |
| 1777649893 | 10.56° C | 54% | 0 hPa | 0 mm | - | - | - |
| 1777649593 | 10.56° C | 52% | 0 hPa | 0 mm | - | - | - |
| 1777649293 | 10.56° C | 57% | 0 hPa | 0 mm | - | - | - |
| 1777648993 | 10° C | 56% | 0 hPa | 0 mm | - | - | - |
| 1777648693 | 10.56° C | 53% | 0 hPa | 0 mm | - | - | - |
| 1777648393 | 10.56° C | 56% | 0 hPa | 0 mm | - | - | - |
| 1777648093 | 10.56° C | 58% | 0 hPa | 0 mm | - | - | - |
| 1777647793 | 10° C | 60% | 0 hPa | 0 mm | - | - | - |
| 1777647493 | 10° C | 58% | 0 hPa | 0 mm | - | - | - |
| 1777647193 | 10° C | 59% | 0 hPa | 0 mm | - | - | - |
| 1777646893 | 9.44° C | 58% | 0 hPa | 0 mm | - | - | - |
| 1777646593 | 9.44° C | 61% | 0 hPa | 0 mm | - | - | - |
| 1777646293 | 9.44° C | 60% | 0 hPa | 0 mm | - | - | - |
| 1777645993 | 8.89° C | 64% | 0 hPa | 0 mm | - | - | - |
| 1777645693 | 8.89° C | 65% | 0 hPa | 0 mm | - | - | - |
| 1777645393 | 8.89° C | 67% | 0 hPa | 0 mm | - | - | - |
| 1777645093 | 8.33° C | 67% | 0 hPa | 0 mm | - | - | - |
| 1777644793 | 8.33° C | 66% | 0 hPa | 0 mm | - | - | - |
| 1777644493 | 8.33° C | 73% | 0 hPa | 0 mm | - | - | - |
| 1777644193 | 8.33° C | 72% | 0 hPa | 0 mm | - | - | - |
| 1777643893 | 7.78° C | 73% | 0 hPa | 0 mm | - | - | - |
* Rain latest hour (hover to see other rain measurements)
** Current wind speed in m/s (hover to see current wind gust speed)